| time (UTC) | temp F | wind direction | speed MPH | gust MPH | rain 1hr in | rain 24hr in | rain mn in | humidity % | barometer mb |
| 20260903174126 | 78 | 178 | 1.0 | 3.0 | 0.00 | 0.00 | 0.00 | 65 | 1019.1 |
| 20260903173147 | 79 | 123 | 0.0 | 2.0 | 0.00 | 0.00 | 0.00 | 64 | 1019.0 |
| 20260903172128 | 80 | 123 | 0.0 | 2.0 | 0.00 | 0.00 | 0.00 | 62 | 1019.1 |
| 20260903171131 | 81 | 123 | 0.0 | 1.0 | 0.00 | 0.00 | 0.00 | 60 | 1019.2 |
| 20260903170132 | 83 | 123 | 0.0 | 0.0 | 0.00 | 0.00 | 0.00 | 57 | 1019.0 |
| 20260903165153 | 83 | 123 | 0.0 | 2.0 | 0.00 | 0.00 | 0.00 | 54 | 1019.0 |
| 20260903164134 | 85 | 123 | 0.0 | 2.0 | 0.00 | 0.00 | 0.00 | 53 | 1019.0 |
| 20260903163135 | 85 | 123 | 1.0 | 2.0 | 0.00 | 0.00 | 0.00 | 52 | 1019.0 |
| 20260903162130 | 86 | 123 | 0.0 | 1.0 | 0.00 | 0.00 | 0.00 | 45 | 1019.2 |
| 20260903161153 | 86 | 123 | 0.0 | 2.0 | 0.00 | 0.00 | 0.00 | 45 | 1019.1 |
| 20260903160134 | 86 | 123 | 0.0 | 2.0 | 0.00 | 0.00 | 0.00 | 45 | 1019.1 |
| 20260903155133 | 87 | 123 | 1.0 | 2.0 | 0.00 | 0.00 | 0.00 | 46 | 1019.2 |
| 20260903154132 | 86 | 123 | 1.0 | 3.0 | 0.00 | 0.00 | 0.00 | 44 | 1019.1 |
| 20260903153125 | 86 | 121 | 1.0 | 4.0 | 0.00 | 0.00 | 0.00 | 43 | 1019.1 |
| 20260903152131 | 86 | 143 | 1.0 | 6.0 | 0.00 | 0.00 | 0.00 | 44 | 1019.2 |
| 20260903151134 | 86 | 82 | 1.0 | 4.0 | 0.00 | 0.00 | 0.00 | 44 | 1019.3 |
| 20260903150137 | 86 | 153 | 1.0 | 3.0 | 0.00 | 0.00 | 0.00 | 44 | 1019.3 |
| 20260903145137 | 86 | 90 | 1.0 | 3.0 | 0.00 | 0.00 | 0.00 | 45 | 1019.2 |
| 20260903144124 | 86 | 168 | 1.0 | 5.0 | 0.00 | 0.00 | 0.00 | 44 | 1019.4 |
| 20260903143127 | 86 | 165 | 1.0 | 3.0 | 0.00 | 0.00 | 0.00 | 45 | 1019.4 |
| 20260903142131 | 86 | 101 | 2.0 | 7.0 | 0.00 | 0.00 | 0.00 | 46 | 1019.4 |
| 20260903141135 | 87 | 166 | 1.0 | 3.0 | 0.00 | 0.00 | 0.00 | 46 | 1019.5 |
| 20260903140122 | 87 | 141 | 1.0 | 6.0 | 0.00 | 0.00 | 0.00 | 46 | 1019.7 |
| 20260903135126 | 87 | 239 | 1.0 | 4.0 | 0.00 | 0.00 | 0.00 | 44 | 1019.7 |
| 20260903134131 | 87 | 122 | 2.0 | 7.0 | 0.00 | 0.00 | 0.00 | 45 | 1019.9 |
| 20260903133134 | 87 | 113 | 1.0 | 3.0 | 0.00 | 0.00 | 0.00 | 44 | 1019.9 |
| 20260903132120 | 87 | 153 | 1.0 | 4.0 | 0.00 | 0.00 | 0.00 | 44 | 1019.9 |
| 20260903131125 | 87 | 131 | 2.0 | 3.0 | 0.00 | 0.00 | 0.00 | 45 | 1019.9 |
| 20260903130128 | 87 | 77 | 2.0 | 4.0 | 0.00 | 0.00 | 0.00 | 44 | 1020.0 |
| 20260903125150 | 87 | 72 | 1.0 | 4.0 | 0.00 | 0.00 | 0.00 | 45 | 1020.2 |
| 20260903124152 | 87 | 98 | 2.0 | 3.0 | 0.00 | 0.00 | 0.00 | 47 | 1020.4 |
| 20260903123139 | 87 | 98 | 0.0 | 6.0 | 0.00 | 0.00 | 0.00 | 43 | 1020.4 |
| 20260903122121 | 87 | 98 | 2.0 | 4.0 | 0.00 | 0.00 | 0.00 | 44 | 1020.4 |
| 20260903121122 | 87 | 186 | 1.0 | 6.0 | 0.00 | 0.00 | 0.00 | 44 | 1020.5 |
| 20260903120137 | 86 | 104 | 1.0 | 4.0 | 0.00 | 0.00 | 0.00 | 47 | 1020.5 |
| 20260903115124 | 86 | 78 | 1.0 | 7.0 | 0.00 | 0.00 | 0.00 | 49 | 1020.6 |
| 20260903114127 | 86 | 93 | 1.0 | 4.0 | 0.00 | 0.00 | 0.00 | 46 | 1020.6 |
| 20260903113129 | 86 | 257 | 1.0 | 3.0 | 0.00 | 0.00 | 0.00 | 45 | 1020.7 |
| 20260903112133 | 85 | 134 | 1.0 | 5.0 | 0.00 | 0.00 | 0.00 | 46 | 1020.8 |
| 20260903111120 | 85 | 105 | 1.0 | 5.0 | 0.00 | 0.00 | 0.00 | 46 | 1020.8 |
| 20260903110145 | 85 | 32 | 1.0 | 4.0 | 0.00 | 0.00 | 0.00 | 50 | 1020.8 |
| 20260903105127 | 85 | 232 | 0.0 | 4.0 | 0.00 | 0.00 | 0.00 | 43 | 1020.9 |
| 20260903104130 | 84 | 103 | 1.0 | 6.0 | 0.00 | 0.00 | 0.00 | 45 | 1021.1 |
| 20260903103139 | 84 | 28 | 1.0 | 4.0 | 0.00 | 0.00 | 0.00 | 48 | 1021.2 |
| 20260903102122 | 83 | 55 | 2.0 | 4.0 | 0.00 | 0.00 | 0.00 | 46 | 1021.4 |
| 20260903101125 | 82 | 54 | 2.0 | 4.0 | 0.00 | 0.00 | 0.00 | 51 | 1021.5 |
| 20260903100125 | 82 | 62 | 2.0 | 4.0 | 0.00 | 0.00 | 0.00 | 47 | 1021.6 |
| 20260903095149 | 82 | 16 | 1.0 | 4.0 | 0.00 | 0.00 | 0.00 | 49 | 1021.7 |
| 20260903094135 | 82 | 57 | 1.0 | 5.0 | 0.00 | 0.00 | 0.00 | 46 | 1021.8 |
| 20260903093137 | 82 | 59 | 2.0 | 4.0 | 0.00 | 0.00 | 0.00 | 44 | 1021.5 |
| 20260903092121 | 81 | 59 | 1.0 | 3.0 | 0.00 | 0.00 | 0.00 | 45 | 1021.5 |
| 20260903091124 | 81 | 69 | 2.0 | 3.0 | 0.00 | 0.00 | 0.00 | 44 | 1021.6 |
| 20260903090134 | 81 | 69 | 0.0 | 2.0 | 0.00 | 0.00 | 0.00 | 47 | 1021.7 |
| 20260903085156 | 79 | 69 | 1.0 | 3.0 | 0.00 | 0.00 | 0.00 | 49 | 1021.7 |
| 20260903084137 | 79 | 69 | 2.0 | 3.0 | 0.00 | 0.00 | 0.00 | 52 | 1021.7 |
| 20260903083120 | 77 | 360 | 0.0 | 2.0 | 0.00 | 0.00 | 0.00 | 55 | 1021.6 |
| 20260903082148 | 76 | 360 | 1.0 | 3.0 | 0.00 | 0.00 | 0.00 | 55 | 1021.5 |
| 20260903081130 | 76 | 360 | 1.0 | 3.0 | 0.00 | 0.00 | 0.00 | 55 | 1021.5 |
| 20260903080153 | 76 | 360 | 1.0 | 5.0 | 0.00 | 0.00 | 0.00 | 54 | 1021.5 |
| 20260903075135 | 75 | 42 | 2.0 | 5.0 | 0.00 | 0.00 | 0.00 | 56 | 1021.5 |
| 20260903074138 | 75 | 360 | 0.0 | 5.0 | 0.00 | 0.00 | 0.00 | 58 | 1021.3 |
| 20260903073126 | 74 | 13 | 2.0 | 5.0 | 0.00 | 0.00 | 0.00 | 58 | 1021.2 |
| 20260903072129 | 73 | 20 | 1.0 | 4.0 | 0.00 | 0.00 | 0.00 | 62 | 1021.1 |
| 20260903071154 | 73 | 20 | 2.0 | 4.0 | 0.00 | 0.00 | 0.00 | 61 | 1021.2 |
| 20260903070137 | 72 | 36 | 0.0 | 2.0 | 0.00 | 0.00 | 0.00 | 65 | 1021.1 |
| 20260903065125 | 71 | 36 | 2.0 | 6.0 | 0.00 | 0.00 | 0.00 | 64 | 1021.1 |
| 20260903064127 | 71 | 355 | 0.0 | 1.0 | 0.00 | 0.00 | 0.00 | 64 | 1021.1 |
| 20260903063131 | 70 | 355 | 0.0 | 2.0 | 0.00 | 0.00 | 0.00 | 64 | 1021.0 |
| 20260903062154 | 69 | 355 | 0.0 | 3.0 | 0.00 | 0.00 | 0.00 | 66 | 1021.0 |
| 20260903061135 | 68 | 333 | 1.0 | 2.0 | 0.00 | 0.00 | 0.00 | 66 | 1021.0 |
| 20260903060123 | 67 | 222 | 0.0 | 0.0 | 0.00 | 0.00 | 0.00 | 70 | 1021.0 |
| 20260903055126 | 67 | 222 | 0.0 | 1.0 | 0.00 | 0.00 | 0.00 | 70 | 1020.9 |
| 20260903054129 | 66 | 222 | 0.0 | 1.0 | 0.00 | 0.00 | 0.00 | 73 | 1020.8 |
| 20260903053133 | 66 | 222 | 0.0 | 2.0 | 0.00 | 0.00 | 0.00 | 73 | 1020.6 |
| 20260903052141 | 66 | 222 | 1.0 | 4.0 | 0.00 | 0.00 | 0.00 | 73 | 1020.5 |
| 20260903051121 | 66 | 202 | 0.0 | 0.0 | 0.00 | 0.00 | 0.00 | 71 | 1020.4 |
| 20260903050126 | 66 | 202 | 0.0 | 2.0 | 0.00 | 0.00 | 0.00 | 69 | 1020.3 |
| 20260903045146 | 67 | 219 | 0.0 | 0.0 | 0.00 | 0.00 | 0.00 | 70 | 1020.2 |
| 20260903044133 | 67 | 219 | 0.0 | 2.0 | 0.00 | 0.00 | 0.00 | 71 | 1020.0 |
| 20260903043137 | 67 | 219 | 0.0 | 2.0 | 0.00 | 0.00 | 0.00 | 71 | 1019.9 |
| 20260903042121 | 67 | 219 | 0.0 | 2.0 | 0.00 | 0.00 | 0.00 | 68 | 1019.8 |
| 20260903041125 | 68 | 219 | 0.0 | 3.0 | 0.00 | 0.00 | 0.00 | 68 | 1019.7 |
| 20260903040133 | 68 | 219 | 0.0 | 4.0 | 0.00 | 0.00 | 0.00 | 68 | 1019.8 |
| 20260903035136 | 68 | 196 | 1.0 | 4.0 | 0.00 | 0.00 | 0.00 | 67 | 1019.7 |
| 20260903034140 | 68 | 271 | 0.0 | 3.0 | 0.00 | 0.00 | 0.00 | 70 | 1019.7 |
| 20260903033122 | 69 | 275 | 1.0 | 3.0 | 0.00 | 0.00 | 0.00 | 69 | 1019.6 |
| 20260903032130 | 69 | 15 | 1.0 | 5.0 | 0.00 | 0.00 | 0.00 | 64 | 1019.6 |
| 20260903031153 | 70 | 29 | 0.0 | 5.0 | 0.00 | 0.00 | 0.00 | 66 | 1019.5 |
| 20260903030135 | 70 | 299 | 0.0 | 4.0 | 0.00 | 0.00 | 0.00 | 60 | 1019.5 |
| 20260903025135 | 70 | 248 | 0.0 | 3.0 | 0.00 | 0.00 | 0.00 | 62 | 1019.5 |
| 20260903024201 | 70 | 360 | 0.0 | 3.0 | 0.00 | 0.00 | 0.00 | 64 | 1019.5 |
| 20260903023127 | 70 | 13 | 0.0 | 4.0 | 0.00 | 0.00 | 0.00 | 65 | 1019.6 |
| 20260903022132 | 71 | 176 | 0.0 | 3.0 | 0.00 | 0.00 | 0.00 | 64 | 1019.6 |
| 20260903021135 | 71 | 207 | 1.0 | 4.0 | 0.00 | 0.00 | 0.00 | 63 | 1019.6 |
| 20260903020158 | 71 | 254 | 1.0 | 3.0 | 0.00 | 0.00 | 0.00 | 63 | 1019.7 |
| 20260903015123 | 72 | 89 | 1.0 | 4.0 | 0.00 | 0.00 | 0.00 | 62 | 1019.7 |
| 20260903014127 | 72 | 148 | 1.0 | 5.0 | 0.00 | 0.00 | 0.00 | 61 | 1019.7 |
| 20260903013131 | 71 | 94 | 1.0 | 3.0 | 0.00 | 0.00 | 0.00 | 63 | 1019.6 |
| 20260903012252 | 71 | 63 | 1.0 | 4.0 | 0.00 | 0.00 | 0.00 | 63 | 1019.6 |
| 20260903011121 | 71 | 152 | 1.0 | 5.0 | 0.00 | 0.00 | 0.00 | 66 | 1019.7 |
| 20260903010145 | 71 | 134 | 1.0 | 3.0 | 0.00 | 0.00 | 0.00 | 68 | 1019.7 |
| 20260903005156 | 71 | 240 | 1.0 | 5.0 | 0.00 | 0.00 | 0.00 | 70 | 1019.7 |
| 20260903004137 | 71 | 259 | 0.0 | 2.0 | 0.00 | 0.00 | 0.00 | 67 | 1019.7 |
| 20260903003140 | 71 | 332 | 0.0 | 3.0 | 0.00 | 0.00 | 0.00 | 67 | 1019.7 |
| 20260903002128 | 72 | 186 | 1.0 | 4.0 | 0.00 | 0.00 | 0.00 | 68 | 1019.7 |
| 20260903001131 | 72 | 243 | 1.0 | 5.0 | 0.00 | 0.00 | 0.00 | 68 | 1019.7 |
| 20260903000135 | 72 | 182 | 2.0 | 3.0 | 0.00 | 0.00 | 0.00 | 69 | 1019.7 |
| 20260902235140 | 72 | 188 | 1.0 | 3.0 | 0.00 | 0.00 | 0.00 | 69 | 1019.7 |
| 20260902234129 | 72 | 128 | 1.0 | 4.0 | 0.00 | 0.00 | 0.00 | 72 | 1019.6 |
| 20260902233134 | 71 | 20 | 0.0 | 2.0 | 0.00 | 0.00 | 0.00 | 72 | 1019.6 |
| 20260902232158 | 72 | 20 | 0.0 | 3.0 | 0.00 | 0.00 | 0.00 | 71 | 1019.7 |
| 20260902231140 | 72 | 213 | 1.0 | 3.0 | 0.00 | 0.00 | 0.00 | 71 | 1019.6 |
| 20260902230128 | 72 | 165 | 1.0 | 5.0 | 0.00 | 0.00 | 0.00 | 71 | 1019.6 |
| 20260902225132 | 72 | 155 | 2.0 | 5.0 | 0.00 | 0.00 | 0.00 | 71 | 1019.6 |
| 20260902224136 | 73 | 99 | 0.0 | 3.0 | 0.00 | 0.00 | 0.00 | 71 | 1019.6 |
| 20260902223138 | 73 | 128 | 1.0 | 5.0 | 0.00 | 0.00 | 0.00 | 70 | 1019.6 |
| 20260902222127 | 73 | 132 | 1.0 | 3.0 | 0.00 | 0.00 | 0.00 | 71 | 1019.6 |
| 20260902221130 | 73 | 189 | 0.0 | 2.0 | 0.00 | 0.00 | 0.00 | 72 | 1019.5 |
| 20260902220154 | 73 | 28 | 1.0 | 3.0 | 0.00 | 0.00 | 0.00 | 72 | 1019.6 |
| 20260902215134 | 73 | 220 | 1.0 | 3.0 | 0.00 | 0.00 | 0.00 | 74 | 1019.5 |
| 20260902214136 | 73 | 148 | 0.0 | 2.0 | 0.00 | 0.00 | 0.00 | 73 | 1019.4 |
| 20260902213140 | 73 | 143 | 0.0 | 3.0 | 0.00 | 0.00 | 0.00 | 72 | 1019.4 |
| 20260902212202 | 73 | 253 | 1.0 | 5.0 | 0.00 | 0.00 | 0.00 | 72 | 1019.3 |
| 20260902211141 | 73 | 261 | 0.0 | 4.0 | 0.00 | 0.00 | 0.00 | 73 | 1019.3 |
| 20260902210138 | 73 | 236 | 1.0 | 3.0 | 0.00 | 0.00 | 0.00 | 74 | 1019.3 |
| 20260902205157 | 74 | 115 | 0.0 | 3.0 | 0.00 | 0.00 | 0.00 | 74 | 1019.3 |
| 20260902204131 | 74 | 59 | 0.0 | 2.0 | 0.00 | 0.00 | 0.00 | 73 | 1019.2 |
| 20260902203127 | 74 | 94 | 1.0 | 3.0 | 0.00 | 0.00 | 0.00 | 72 | 1019.1 |
| 20260902202126 | 75 | 82 | 1.0 | 2.0 | 0.00 | 0.00 | 0.00 | 72 | 1019.0 |
| 20260902201141 | 75 | 89 | 2.0 | 5.0 | 0.00 | 0.00 | 0.00 | 72 | 1019.0 |
| 20260902200127 | 74 | 240 | 0.0 | 3.0 | 0.00 | 0.00 | 0.00 | 73 | 1018.9 |
| 20260902195125 | 74 | 237 | 0.0 | 2.0 | 0.00 | 0.00 | 0.00 | 73 | 1018.9 |
| 20260902194139 | 75 | 238 | 1.0 | 5.0 | 0.00 | 0.00 | 0.00 | 73 | 1018.9 |
| 20260902193134 | 75 | 142 | 0.0 | 2.0 | 0.00 | 0.00 | 0.00 | 73 | 1018.8 |
| 20260902192132 | 75 | 142 | 0.0 | 2.0 | 0.00 | 0.00 | 0.00 | 73 | 1018.8 |
| 20260902191136 | 74 | 144 | 0.0 | 2.0 | 0.00 | 0.00 | 0.00 | 74 | 1018.7 |
| 20260902190136 | 74 | 144 | 0.0 | 3.0 | 0.00 | 0.00 | 0.00 | 76 | 1018.6 |
| 20260902185136 | 75 | 142 | 2.0 | 3.0 | 0.00 | 0.00 | 0.00 | 76 | 1018.5 |
| 20260902184138 | 75 | 140 | 0.0 | 1.0 | 0.00 | 0.00 | 0.00 | 75 | 1018.3 |
| 20260902183142 | 75 | 140 | 0.0 | 2.0 | 0.00 | 0.00 | 0.00 | 75 | 1018.3 |
| 20260902182143 | 75 | 126 | 1.0 | 2.0 | 0.00 | 0.00 | 0.00 | 75 | 1018.2 |
| 20260902181138 | 76 | 125 | 0.0 | 2.0 | 0.00 | 0.00 | 0.00 | 74 | 1018.2 |
| 20260902180136 | 77 | 125 | 0.0 | 1.0 | 0.00 | 0.00 | 0.00 | 73 | 1018.2 |
| 20260902175141 | 78 | 125 | 0.0 | 2.0 | 0.00 | 0.00 | 0.00 | 71 | 1018.1 |